Location: Patterson (historical)
(35.1418°N, 90.5529°W)
Time: 02:18:33
(UTC+00:00)

STARLINK-36053 - Pass Details

Date: 11 December 2025
Orbit: 482 x 484 km, 43.0° (Epoch: 15 January)

Event Time Altitude Azimuth Distance (km) Brightness Sun altitude
Exits shadow 10:59:12 26° 173° (S) 983 4.0 -24.1°
Drops below altitude 10° 11:03:32 10° 81° (E) 1,652 6.0 -23.2°
Enters shadow 12:02:57 -65° 244° (WSW) 12,067 9.3 -11.6°
Maximum altitude 12:39:06 50° 338° (NNW) 614 2.6 -4.8°
